SCP
0 0 0 0 0 0 0 0 0 0 0 0 0 0 0 0 0 0 0 0 0 0 0 0 0 0 0 0 0 0 0 0 0 0 0 0 -0 0 0 0 0 0 0 0
0 0 0 0 0 0 0 0 0 0 0 0 0 0 0 0 0 0 0 0 0 0 0 0 0 0 0 0 0 0 0 0 0 0 0 0 0 0 0 0 0 0 0 0
0 0 0 0 0 0 0 0 0 0 0 0 0 0 0 0 0 0 0 0 0 0 0 0 0 0 0 0 0 0 0 0 0 0 0 0 0 0 0 0 0 0 0 0
0 0 0 0 0 0 0 0 0 0 0 0 0 0 0 0 0 0 0 0 0 0 0 0 0 0 0 0 0 0 0 0 0 0 0 0 0 0 0 0 0 0 0 0
0 0 0 0 0 0 0 0 0 0 0 0 0 0 0 0 0 0 0 0 0 0 0 0 0 0 0 0 0 0 0 0 0 0 0 0 0 0 0 0 0 0 0 0
0 0 0 0 0 0 0 0 0 0 0 0 0 0 0 0 0 0 0 0 0 0 0 0 0 0 0 0 0 0 0 0 0 0 0 0 0 0 0 0 0 0 0 0
0 0 0 0 0 0 0 0 0 0 0 0 0 0 0 0 0 0 0 0 0 0 0 0 0 0 0 0 0 0 0 0 0 0 0 0 0 0 0 0 0 0 0 0
0 0 0 0 0 0 0 0 0 0 0 0 0 0 0 0 0 0 0 0 0 0 0 0 0 0 0 0 0 0 0 0 0 0 0 0 0 0 0 0 0 0 0 0
0 0 0 0 0 0 0 0 0 0 0 0 0 0 0 0 0 0 0 0 0 0 0 0 0 0 0 0 0 0 0 0 0 0 0 0 0 0 0 0 0 0 0 0
0 0 0 0 0 0 0 0 0 0 0 0 0 0 0 0 0 0 0 0 0 0 0 0 0 0 0 0 0 0 0 0 0 0 0 0 0 0 0 0 0 0 0 0
0 0 0 0 0 0 0 0 0 0 0 0 0 0 0 0 0 0 0 0 0 0 0 0 0 0 0 0 0 0 0 0 0 0 0 0 0 0 0 0 0 0 0 0
0 0 0 0 0 0 0 0 0 0 0 0 0 0 0 0 0 0 0 0 0 0 0 0 0 0 0 0 0 0 0 0 0 0 0 0 0 0 0 0 0 0 0 0
0 0 0 0 0 0 0 0 0 0 0 0 0 0 0 0 0 0 0 0 0 0 0 0 0 0 0 0 0 0 0 0 0 0 0 0 0 0 0 0 0 0 0 0
0 0 0 0 0 0 0 0 0 0 0 0 0 0 0 0 0 0 0 0 0 0 0 0 0 0 0 0 0 0 0 0 0 0 0 0 0 0 0 0 0 0 0 0
0 0 0 0 0 0 0 0 0 0 0 0 0 0 0 0 0 0 0 0 0 0 0 0 0 0 0 0 0 0 0 0 0 0 0 0 0 0 0 0 0 0 0 0
0 0 0 0 0 0 0 0 0 0 0 0 0 0 0 0 0 0 0 0 0 0 0 0 0 0 0 0 0 0 0 0 0 0 0 0 0 0 0 0 0 0 0 0
0 0 0 0 0 0 0 0 0 0 0 0 0 0 0 0 0 0 0 0 0 0 0 0 0 0 0 0 0 0 0 0 0 0 0 0 0 0 0 0 0 0 0 0
0 0 0 0 0 0 0 0 0 0 0 0 0 0 0 0 0 0 0 0 0 0 0 0 0 0 0 0 0 0 0 0 0 0 0 0 0 0 0 0 0 0 0 0
0 0 0 0 0 0 0 0 0 0 0 0 0 0 0 0 0 0 0 0 0 0 0 0 0 0 0 0 0 0 0 0 0 0 0 0 0 0 0 0 0 0 0 0
0 0 0 0 0 0 0 0 0 0 0 0 0 0 0 0 0 0 0 0 0 0 0 0 0 0 0 0 0 0 0 0 0 0 0 0 0 0 0 0 0 0 0 0
0 0 0 0 0 0 0 0 0 0 0 0 0 0 0 0 0 0 0 0 0 0 0 0 0 0 0 0 0 0 0 0 0 0 0 0 0 0 0 0 0 0 0 0
0 0 0 0 0 0 0 0 0 0 0 0 0 0 0 0 0 0 0 0 0 0 0 0 0 0 0 0 0 0 0 0 0 0 0 0 0 0 0 0 0 0 0 0
0 0 0 0 0 0 0 0 0 0 0 0 0 0 0 0 0 0 0 0 0 0 0 0 0 0 0 0 0 0 0 0 0 0 0 0 0 0 0 0 0 0 0 0
0 0 0 0 0 0 0 0 0 0 0 0 0 0 0 0 0 0 0 0 0 0 0 0 0 0 0 0 0 0 0 0 0 0 0 0 0 0 0 0 0 0 0 0
0 0 0 0 0 0 0 0 0 0 0 0 0 0 0 0 0 0 0 0 0 0 0 0 0 0 0 0 0 0 0 0 0 0 0 0 0 0 0 0 0 0 0 0
0 0 0 0 0 0 0 0 0 0 0 0 0 0 0 0 0 0 0 0 0 0 0 0 0 0 0 0 0 0 0 0 0 0 0 0 0 0 0 0 0 0 0 0
0 0 0 0 0 0 0 0 0 0 0 0 0 0 0 0 0 0 0 0 0 0 0 0 0 0 0 0 0 0 0 0 0 0 0 0 0 0 0 0 0 0 0 0
Wind_Speed
7 7 5 8 9 9 11 10 11 10 10 15 8 7 7 6 5 5 5 4 4 4 4 3 3 4 4 4 4 4 4 4 5 5 4 4 4 4 4 3 3 2 2 2
5 5 6 10 13 13 13 11 13 12 16 12 7 5 6 6 5 6 6 6 5 5 4 4 4 4 4 4 4 3 3 4 4 4 4 4 4 4 4 3 3 3 3 3
5 5 6 11 11 13 9 8 9 14 14 5 5 6 7 7 6 7 7 6 6 6 5 5 5 4 4 4 3 3 3 3 4 4 4 4 4 4 4 3 3 3 3 3
4 4 8 8 1 6 7 8 11 10 8 6 7 6 6 6 7 8 7 6 6 5 5 4 4 3 3 2 2 2 3 3 3 3 4 4 3 3 3 3 2 2 3 3
2 4 11 10 4 5 5 7 8 12 11 7 4 3 5 5 6 7 7 6 5 5 4 4 4 3 2 2 2 2 3 3 3 3 3 3 3 3 3 2 2 2 2 2
3 4 9 7 1 2 2 7 4 6 7 4 1 2 6 3 3 5 5 4 4 3 2 3 3 2 2 3 3 4 4 4 3 3 2 3 3 3 3 2 2 2 2 2
7 7 12 8 2 3 3 6 2 4 5 4 6 7 5 4 3 4 4 4 3 3 3 4 3 3 3 4 5 5 4 3 3 2 3 3 3 2 2 2 2 2 2 2
7 8 13 4 6 8 8 3 2 3 4 5 7 6 6 5 5 4 4 3 3 3 4 3 3 4 4 6 5 3 2 2 2 2 2 2 2 2 2 2 2 2 2 3
11 12 6 5 8 6 3 3 4 4 5 5 6 7 6 6 5 5 5 4 3 4 4 3 4 5 6 6 3 2 2 3 3 2 2 2 1 2 2 1 1 2 2 2
8 12 9 8 8 7 6 7 7 6 6 6 7 8 7 7 6 5 5 4 3 3 4 5 4 5 6 4 3 3 3 3 2 2 2 1 1 1 1 1 1 2 2 2
9 10 7 9 9 9 8 7 7 7 7 8 8 9 8 7 7 6 5 4 3 4 5 6 4 5 5 3 3 3 3 3 2 2 2 2 2 2 2 2 2 2 2 2
12 10 7 8 5 5 6 8 8 7 8 7 7 9 8 7 6 5 5 4 4 5 5 5 4 5 4 4 4 4 3 3 2 2 2 2 2 2 3 3 4 4 4 3
13 10 9 9 8 7 7 8 8 7 8 8 7 7 7 7 5 5 5 5 6 6 6 5 4 5 5 4 4 5 4 3 2 2 2 2 2 2 2 3 3 4 4 5
11 8 9 10 10 9 8 8 7 7 8 8 7 6 5 5 5 5 6 6 5 5 5 5 5 5 4 4 4 5 4 4 3 3 3 2 2 2 2 2 2 2 3 5
10 10 11 9 8 8 7 5 6 7 7 6 5 5 5 6 6 7 6 4 3 4 4 4 5 5 3 4 4 5 4 3 3 2 2 2 2 2 2 2 2 2 2 3
6 6 8 9 10 10 8 7 7 9 7 6 5 6 6 6 5 5 4 3 4 5 5 5 6 5 3 4 4 4 4 6 4 3 2 2 2 2 2 2 2 2 2 2
6 7 7 8 9 9 8 8 8 8 7 7 7 6 4 4 4 5 5 4 5 5 4 4 5 3 3 4 4 3 3 4 5 3 3 3 2 3 2 2 3 3 3 3
8 9 8 8 8 8 8 7 6 7 7 7 5 4 4 5 6 6 5 3 3 4 4 5 4 3 4 4 4 3 3 3 3 3 3 3 2 2 2 3 3 3 3 3
6 7 7 7 7 6 6 6 6 6 5 4 4 5 5 6 5 5 3 3 4 5 5 4 5 4 4 4 4 3 3 3 3 3 2 4 3 3 3 3 3 3 3 3
4 5 5 5 5 5 5 5 5 4 4 4 4 4 5 5 4 4 4 4 5 5 4 3 3 3 4 4 5 3 3 4 3 3 3 3 3 3 3 3 3 3 3 3
5 4 4 4 5 4 4 4 4 5 4 4 4 5 6 5 4 3 3 5 5 4 4 5 3 3 3 4 5 3 4 4 4 3 3 3 3 3 3 3 3 3 3 3
4 4 5 5 5 5 4 4 4 5 4 4 5 5 5 5 4 4 5 5 4 4 3 3 3 4 5 5 3 3 4 4 3 3 3 3 3 3 3 3 3 3 3 3
5 5 5 5 5 5 5 4 4 4 5 5 5 5 6 5 4 4 5 4 3 5 3 3 5 7 7 4 3 4 4 4 4 4 4 4 4 4 4 4 3 3 3 3
5 5 5 5 3 4 6 6 4 4 4 5 5 5 5 4 4 4 4 4 5 4 3 4 6 7 6 3 3 3 4 4 4 3 3 3 3 3 3 3 3 3 3 4
5 5 5 5 5 5 6 5 4 4 4 4 5 5 4 4 4 4 3 4 5 4 3 4 6 6 4 3 3 4 4 4 4 3 3 3 3 3 3 3 3 3 3 3
6 5 5 6 6 5 4 4 4 4 4 4 4 3 3 3 3 3 3 3 4 4 3 2 3 3 2 3 3 3 3 3 4 3 4 4 4 4 3 3 4 4 4 3
5 5 4 5 5 5 4 4 5 5 5 5 5 4 3 3 3 3 3 3 3 3 3 2 2 2 3 3 3 3 3 3 3 3 3 3 3 3 4 4 3 3 3 3
Wind_Direction
258 265 253 245 241 213 210 213 222 244 249 265 266 260 263 260 261 262 262 256 252 258 268 278 285 292 298 307 319 329 339 342 336 332 333 337 343 347 355 4 359 359 10 12
284 266 257 262 250 232 230 229 238 258 269 264 263 252 258 257 252 254 254 249 249 254 261 263 264 272 285 297 308 320 327 330 331 338 346 344 346 352 2 5 0 7 11 7
281 310 314 270 240 213 209 210 202 230 246 263 266 256 250 249 246 245 249 245 242 244 244 246 247 246 258 274 295 313 319 325 331 338 343 343 347 357 356 354 2 8 4 9
291 341 256 248 224 190 211 235 218 236 254 252 247 258 256 243 237 247 245 242 243 240 243 243 237 243 253 268 287 303 312 319 326 332 335 338 342 348 344 345 357 2 4 2
245 279 280 288 255 182 199 266 225 230 250 261 276 306 283 244 226 234 235 236 235 229 231 232 232 230 231 262 276 286 294 303 310 318 324 331 334 334 332 339 351 356 359 1
196 243 255 257 209 164 111 283 250 209 236 246 159 282 274 272 246 246 245 242 235 227 221 228 233 209 214 245 257 265 274 282 293 303 308 314 315 320 328 333 336 346 353 353
215 240 264 257 203 130 188 253 260 204 225 208 209 230 267 290 274 253 248 246 230 214 220 227 220 200 224 240 246 253 266 280 292 300 298 300 312 319 326 331 347 348 341 340
192 217 252 219 151 190 220 254 265 247 238 234 245 265 276 277 272 264 260 253 226 219 236 234 211 205 231 244 250 252 257 269 279 288 292 305 312 315 322 330 339 337 339 335
201 219 239 193 205 223 217 249 256 252 257 253 260 264 268 266 263 259 250 245 231 224 240 242 222 212 232 248 246 240 244 258 270 280 285 291 279 290 317 323 319 314 314 317
248 256 253 252 253 257 246 245 253 254 262 260 260 265 267 265 261 256 249 240 231 224 237 247 237 231 238 246 232 227 239 253 261 265 278 283 263 255 266 270 279 290 298 306
251 266 284 266 243 245 252 251 255 258 253 250 254 261 259 258 255 250 248 240 223 223 236 246 243 243 245 235 217 226 239 245 249 246 251 259 260 246 239 239 240 259 266 274
238 232 225 252 247 238 248 257 256 260 267 257 245 255 257 255 251 245 243 236 232 234 241 249 245 248 247 230 211 215 234 238 233 232 241 246 265 290 277 268 276 275 284 288
244 254 247 260 267 258 254 260 260 257 259 264 259 248 248 252 250 240 237 233 232 234 237 239 239 248 247 226 211 214 226 230 226 221 226 232 240 255 287 294 281 283 291 300
242 251 264 261 261 263 259 261 265 266 263 258 258 254 246 247 248 240 239 236 233 233 233 230 235 247 243 214 211 219 224 226 220 217 219 224 230 239 250 265 293 300 296 301
240 232 243 259 266 268 266 262 267 270 269 266 254 248 242 241 245 247 246 238 229 232 235 230 238 250 230 203 209 217 218 222 218 215 217 220 225 232 240 255 267 289 309 310
249 247 246 253 261 267 269 262 260 265 265 264 260 253 247 245 250 254 247 217 212 232 235 230 240 243 210 201 208 214 221 225 213 210 213 216 220 228 237 248 261 268 275 286
244 256 253 258 259 262 258 252 251 258 259 257 255 255 251 249 253 254 251 234 226 236 236 232 242 236 209 204 203 210 213 221 217 212 212 214 218 227 235 243 254 262 266 270
233 242 247 251 257 263 265 260 255 255 253 253 254 246 237 234 242 250 251 242 237 252 250 242 239 224 213 207 203 203 203 206 205 211 211 215 221 224 229 240 253 264 278 282
247 250 256 257 256 255 258 260 259 254 254 248 239 238 239 241 246 250 241 225 230 251 259 241 228 214 215 215 201 196 198 200 205 212 211 224 227 224 227 236 246 255 264 270
266 265 265 267 264 251 254 260 259 257 251 236 238 246 251 249 242 239 230 235 237 240 243 232 216 216 218 215 203 194 197 200 205 209 210 213 220 227 230 237 246 255 260 263
273 278 279 276 277 270 255 250 247 253 254 234 231 242 249 253 237 221 226 254 257 239 234 232 222 222 215 208 200 191 195 200 205 208 210 215 222 229 232 236 244 251 256 261
271 269 268 270 273 279 272 253 243 245 249 245 242 242 247 253 243 235 233 238 250 245 227 219 220 222 218 204 189 189 196 202 206 207 211 214 219 226 232 236 240 247 251 255
263 261 262 263 263 271 279 268 248 240 242 242 239 237 239 242 231 231 255 244 233 238 229 226 228 226 219 198 188 194 200 205 208 210 214 217 220 222 227 234 238 243 246 250
263 265 264 262 256 261 270 272 261 248 246 251 246 238 233 242 251 239 238 247 239 236 231 234 230 225 211 192 193 200 206 210 211 212 215 217 219 221 225 231 237 242 245 248
255 257 256 252 251 253 256 261 262 257 252 254 253 245 234 226 233 244 236 232 232 232 238 236 231 225 210 194 200 206 209 211 210 207 209 213 217 220 225 228 231 238 244 247
250 252 251 246 247 252 251 245 248 250 244 252 257 245 233 227 227 232 231 230 229 231 232 230 222 215 202 202 207 210 211 220 225 218 213 215 218 219 224 228 232 235 241 247
250 250 254 259 256 244 238 236 240 245 237 236 250 246 228 220 219 223 225 226 225 224 221 216 207 201 200 205 211 213 212 211 212 214 212 213 215 220 225 229 234 237 240 245